Weather History for Medford, OR

Change the Weather History Date:

Wednesday, January 1, 2014

  Actual Average Record
Temperature  
Mean Temperature 35 °F 39 °F  
Max Temperature 47 °F 46 °F 65 °F (1939)
Min Temperature 22 °F 32 °F 11 °F (1919)
Degree Days  
Heating Degree Days 30 26  
Month to date heating degree days 30 26  
Since 1 July heating degree days 2121 1792  
Cooling Degree Days 0 0  
Month to date cooling degree days 0 0  
Year to date cooling degree days 0 0  
Moisture  
Dew Point 26 °F    
Average Humidity 75    
Maximum Humidity 92    
Minimum Humidity 58    
Precipitation  
Precipitation 0.00 in 0.09 in 1.53 in (1997)
Month to date precipitation 0.00 0.09  
Year to date precipitation 0.00 0.09  
Snow  
Snow 0.00 in 0.10 in - ()
Month to date snowfall 0.0 0.1  
Since 1 July snowfall 3.4 1.8  
Snow Depth 0.00 in    
Sea Level Pressure  
Sea Level Pressure 30.34 in    
Wind  
Wind Speed 0 mph (NNW)    
Max Wind Speed 5 mph    
Max Gust Speed 6 mph    
Visibility 3 miles    
Events Fog    
T = Trace of Precipitation, MM = Missing Value Source: NWS Daily Summary

Daily Weather History Graph

Daily Weather History Graph

Search for Another Location

Airport:

Trip Planner

Search our weather history database for the weather conditions in past years. The results will help you decide how hot, cold, wet, or windy it might be!

Date:

Astronomy

Jan. 01, 2014 Rise Set
Actual Time 7:40 AM PST 4:49 PM PST
Civil Twilight 7:09 AM PST 5:21 PM PST
Nautical Twilight 6:33 AM PST 5:56 PM PST
Astronomical Twilight 5:59 AM PST 6:30 PM PST
Moon 7:34 AM PST (1/1) 5:43 PM PST (1/1)
Length of Visible Light 10h 12m
Length of Day
9h 08m
New Moon, 0% of the Moon is Illuminated
Jan 1
New Moon
Jan 7
First Quarter
Jan 15
Full
Jan 23
Last Quarter
Jan 30
New

Hourly Weather History & Observations

Time (PST) Temp. Windchill Dew Point Humidity Pressure Visibility Wind Dir Wind Speed Gust Speed Precip Events Conditions
12:53 AM 30.0 °F - 27.0 °F 88% 30.36 in 3.0 mi Calm Calm - N/A   Clear
1:53 AM 28.0 °F - 25.0 °F 88% 30.36 in 2.5 mi Calm Calm - N/A   Clear
2:05 AM 28.0 °F - 25.0 °F 88% 30.33 in 4.0 mi Calm Calm - N/A   Clear
2:46 AM 28.0 °F - 25.0 °F 88% 30.34 in 2.5 mi Calm Calm - N/A   Clear
2:53 AM 26.1 °F - 23.0 °F 88% 30.37 in 3.0 mi Calm Calm - N/A   Clear
3:44 AM 26.1 °F - 24.1 °F 92% 30.35 in 1.8 mi Calm Calm - N/A   Clear
3:53 AM 25.0 °F - 23.0 °F 92% 30.37 in 0.8 mi Calm Calm - N/A   Mist
3:59 AM 24.1 °F - 21.9 °F 91% 30.34 in 0.2 mi Calm Calm - N/A Fog Light Freezing Fog
4:11 AM 25.0 °F - 23.0 °F 92% 30.34 in 0.2 mi Calm Calm - N/A Fog Light Freezing Fog
4:20 AM 25.0 °F - 23.0 °F 92% 30.34 in 1.0 mi Calm Calm - N/A   Mist
4:31 AM 25.0 °F - 24.1 °F 96% 30.34 in 0.2 mi Calm Calm - N/A Fog Light Freezing Fog
4:43 AM 24.1 °F - 23.0 °F 96% 30.34 in 0.5 mi Calm Calm - N/A Fog Light Freezing Fog
4:53 AM 24.1 °F - 21.9 °F 91% 30.38 in 0.2 mi Calm Calm - N/A Fog Light Freezing Fog
5:16 AM 25.0 °F - 23.0 °F 92% 30.34 in 0.2 mi Calm Calm - N/A Fog Light Freezing Fog
5:24 AM 24.1 °F - 23.0 °F 96% 30.34 in 0.5 mi Calm Calm - N/A Fog Light Freezing Fog
5:31 AM 24.1 °F - 21.9 °F 91% 30.34 in 1.2 mi Calm Calm - N/A   Partly Cloudy
5:43 AM 25.0 °F - 23.0 °F 92% 30.34 in 2.5 mi Calm Calm - N/A   Partly Cloudy
5:53 AM 25.0 °F - 23.0 °F 92% 30.38 in 3.0 mi Calm Calm - N/A   Clear
6:53 AM 25.0 °F - 21.9 °F 88% 30.38 in 3.0 mi Calm Calm - N/A   Clear
7:26 AM 23.0 °F - 21.0 °F 92% 30.35 in 3.0 mi Calm Calm - N/A   Partly Cloudy
7:29 AM 23.0 °F 18.4 °F 21.0 °F 92% 30.35 in 1.8 mi NNW 3.5 mph - N/A   Scattered Clouds
7:33 AM 23.0 °F - 21.0 °F 92% 30.35 in 1.0 mi Calm Calm - N/A   Mist
7:35 AM 23.0 °F - 21.9 °F 96% 30.35 in 0.8 mi Calm Calm - N/A   Mist
7:44 AM 23.0 °F - 21.0 °F 92% 30.35 in 0.2 mi Calm Calm - N/A Fog Light Freezing Fog
7:53 AM 23.0 °F - 19.9 °F 88% 30.40 in 0.2 mi Calm Calm - N/A Fog Light Freezing Fog
8:08 AM 23.0 °F - 21.9 °F 96% 30.36 in 0.2 mi Calm Calm - N/A Fog Light Freezing Fog
8:15 AM 23.0 °F - 21.9 °F 96% 30.36 in 0.2 mi Calm Calm - N/A Fog Light Freezing Fog
8:43 AM 25.0 °F - 24.1 °F 96% 30.36 in 0.2 mi Calm Calm - N/A Fog Light Freezing Fog
8:53 AM 25.0 °F - 23.0 °F 92% 30.41 in 0.2 mi Calm Calm - N/A Fog Light Freezing Fog
9:01 AM 25.0 °F - 23.0 °F 92% 30.37 in 0.8 mi Calm Calm - N/A   Mist
9:17 AM 26.1 °F - 24.1 °F 92% 30.36 in 0.2 mi Calm Calm - N/A Fog Light Freezing Fog
9:25 AM 27.0 °F - 25.0 °F 92% 30.36 in 0.8 mi Calm Calm - N/A   Mist
9:34 AM 27.0 °F - 25.0 °F 92% 30.36 in 2.0 mi Calm Calm - N/A   Overcast
9:53 AM 28.0 °F - 27.0 °F 96% 30.40 in 2.0 mi Calm Calm - N/A   Mostly Cloudy
9:57 AM 28.0 °F - 26.1 °F 92% 30.36 in 1.8 mi Calm Calm - N/A   Mostly Cloudy
10:00 AM 28.9 °F - 27.0 °F 92% 30.36 in 2.0 mi Calm Calm - N/A   Scattered Clouds
10:19 AM 30.0 °F - 27.0 °F 88% 30.36 in 3.0 mi Calm Calm - N/A   Clear
10:26 AM 30.0 °F - 27.0 °F 88% 30.36 in 2.5 mi Calm Calm - N/A   Clear
10:43 AM 30.9 °F - 28.9 °F 92% 30.35 in 3.0 mi Calm Calm - N/A   Clear
10:53 AM 32.0 °F - 28.9 °F 88% 30.38 in 3.0 mi Calm Calm - N/A   Clear
11:53 AM 37.0 °F 34.5 °F 30.9 °F 79% 30.34 in 6.0 mi NNW 3.5 mph - N/A   Haze
12:53 PM 42.1 °F - 32.0 °F 67% 30.31 in 10.0 mi Calm Calm - N/A   Clear
1:53 PM 45.0 °F - 32.0 °F 60% 30.28 in 10.0 mi Calm Calm - N/A   Clear
2:53 PM 46.9 °F - 32.0 °F 56% 30.27 in 10.0 mi Calm Calm - N/A   Clear
3:53 PM 46.9 °F - 34.0 °F 61% 30.27 in 10.0 mi Calm Calm - N/A   Clear
4:53 PM 44.1 °F - 33.1 °F 65% 30.27 in 10.0 mi Calm Calm - N/A   Clear
5:53 PM 39.9 °F - 32.0 °F 73% 30.29 in 10.0 mi Calm Calm - N/A   Clear
6:53 PM 39.0 °F - 33.1 °F 79% 30.30 in 8.0 mi Calm Calm - N/A   Clear
7:53 PM 36.0 °F - 30.9 °F 82% 30.31 in 6.0 mi Calm Calm - N/A   Haze
8:53 PM 33.1 °F - 28.9 °F 85% 30.31 in 7.0 mi Calm Calm - N/A   Clear
9:53 PM 32.0 °F - 28.9 °F 88% 30.32 in 7.0 mi Calm Calm - N/A   Clear
10:53 PM 32.0 °F - 28.9 °F 88% 30.32 in 4.0 mi Calm Calm - N/A   Clear
11:53 PM 30.0 °F - 27.0 °F 88% 30.32 in 5.0 mi Calm Calm - N/A   Clear